Temperature
12 12 12 12 12 12 12 12 12 12 12 12 12 12 12 12 12 11 12 12 12 12 12 12 12 12 12 12 12 12 12 12 12 12 12 12 12 12 12 12 12 12 12
12 11 11 11 11 11 11 11 11 11 11 11 11 11 11 11 11 11 11 11 11 11 11 11 11 11 11 11 11 11 11 11 12 12 12 12 12 12 12 12 12 12 12
11 11 11 11 10 10 10 10 10 10 10 10 10 10 10 10 10 10 10 10 10 11 11 11 11 11 11 11 11 11 11 11 11 11 11 11 11 11 12 11 11 11 11
10 10 10 10 10 10 10 10 9 9 9 9 9 9 9 10 10 10 10 10 10 10 10 10 10 10 10 10 10 10 10 10 11 11 11 11 11 11 11 11 11 11 11
10 10 10 9 9 9 9 9 8 8 8 8 8 8 8 9 9 9 9 9 9 9 9 9 9 9 9 9 10 10 10 10 10 10 10 10 10 11 11 11 11 11 11
9 9 9 9 9 8 8 8 8 8 8 7 7 7 8 8 8 8 8 8 8 8 8 8 8 8 9 9 9 9 9 9 9 9 10 10 10 10 10 10 10 10 10
9 9 9 8 8 8 8 7 7 7 7 7 7 7 7 7 7 7 7 7 7 8 8 8 8 8 8 8 8 8 8 9 9 9 9 9 9 10 10 10 10 10 10
8 8 8 8 8 7 7 7 7 7 6 6 6 6 6 7 7 7 7 7 7 7 7 7 7 7 7 7 7 8 8 8 8 8 8 9 9 9 9 9 9 9 10
8 8 8 8 7 7 7 7 6 6 6 6 5 5 5 6 6 6 6 6 6 6 6 6 6 6 6 6 7 7 7 7 8 8 8 8 8 8 9 9 9 9 9
8 7 7 7 7 7 6 6 6 6 5 5 5 5 5 5 5 5 5 6 6 6 6 6 6 6 6 6 6 6 7 7 7 7 7 7 8 8 8 8 8 9 9
7 7 7 7 6 6 6 6 6 5 5 5 4 4 4 4 4 4 5 5 5 5 5 5 5 5 5 5 6 6 6 6 6 6 7 7 7 7 7 8 8 8 8
7 7 6 6 6 6 5 5 5 5 5 4 4 4 4 4 4 4 4 4 4 5 5 4 4 5 5 5 5 5 6 6 6 6 6 6 6 7 7 7 7 8 8
6 6 6 5 5 5 5 5 5 4 4 4 4 4 4 3 3 3 3 3 3 4 4 4 4 4 4 4 4 5 5 5 5 6 6 6 6 6 7 7 7 7 7
6 5 5 5 5 5 4 4 4 4 4 3 3 3 3 3 3 3 3 3 3 3 4 4 4 4 4 4 4 4 4 5 5 5 5 6 6 6 6 7 7 7 7
5 5 5 5 5 4 4 4 4 3 3 3 3 3 3 3 3 3 3 2 2 2 3 3 4 4 3 3 4 4 4 4 5 5 5 5 6 6 6 6 6 6 7
5 5 5 4 4 4 4 3 3 3 3 3 3 3 3 3 3 3 2 2 2 2 2 3 3 3 3 3 3 3 4 4 4 5 5 5 5 6 6 6 6 6 6
5 4 4 4 4 4 3 3 3 3 3 3 2 2 2 2 2 2 2 2 2 2 2 2 2 3 3 3 3 3 3 4 4 5 5 5 5 5 6 5 6 6 6
4 4 4 4 3 3 3 3 3 3 2 2 2 2 2 2 2 2 2 2 2 1 1 2 2 2 2 2 2 3 3 3 4 4 4 5 5 5 5 5 5 5 6
4 4 3 3 3 3 3 3 2 2 2 2 2 2 2 2 2 2 2 2 1 1 1 1 2 2 2 2 2 2 3 3 3 4 4 4 5 5 5 5 5 5 5
3 3 3 3 3 2 2 2 2 2 2 2 2 2 2 2 2 2 1 1 1 1 1 1 1 2 2 2 2 2 2 3 3 3 4 4 4 4 4 5 5 5 5
3 2 2 2 2 2 2 2 1 1 2 2 2 2 2 2 2 1 1 1 1 1 1 1 1 1 1 1 2 2 2 2 2 3 3 3 3 4 4 4 4 4 4
2 2 2 2 2 2 2 2 1 1 1 1 2 2 2 2 2 2 1 1 1 1 1 1 1 1 1 1 1 1 1 2 2 2 2 2 3 3 3 3 3 3 3
2 1 1 1 1 2 2 1 1 1 1 1 1 1 1 1 1 1 1 1 1 1 1 1 1 1 1 1 1 1 1 2 1 2 2 2 2 2 2 2 2 2 2
1 1 1 1 1 1 1 1 1 1 1 1 1 1 1 1 1 1 1 1 1 1 1 1 1 1 1 1 1 1 1 1 1 2 2 1 2 2 2 2 2 2 2
0 0 0 0 0 1 1 1 0 0 0 1 1 1 1 1 1 1 1 1 1 1 1 1 1 1 1 1 1 1 1 1 1 1 1 1 1 1 1 1 1 1 1
-0 -0 -0 -0 -0 0 0 0 0 -0 -0 0 0 0 0 0 1 1 0 0 0 0 1 1 1 1 1 1 1 1 1 1 1 1 1 1 1 0 0 0 0 1 1
Wind_Speed
2 2 2 2 3 3 3 3 3 3 3 4 4 4 4 5 5 6 5 5 8 10 10 11 11 12 12 13 13 13 13 13 14 14 14 15 15 15 16 16 17 17 17
2 1 2 2 2 3 3 3 3 3 3 3 4 5 5 5 6 7 7 6 8 9 10 11 12 12 13 14 14 14 14 14 14 15 16 16 16 16 17 17 18 18 18
1 1 1 1 2 3 3 3 4 3 3 4 5 5 5 6 6 7 7 7 7 8 10 11 12 13 13 14 15 15 15 15 16 16 16 17 17 18 18 18 19 19 19
2 1 1 2 2 3 3 3 3 4 4 4 5 5 6 6 7 7 7 7 7 7 8 10 12 13 14 15 15 15 15 16 17 17 17 18 18 19 19 20 20 19 19
1 2 2 2 3 2 3 3 4 4 5 5 6 6 6 7 7 7 7 7 7 8 8 9 11 13 14 14 15 15 15 16 17 17 18 19 19 19 19 20 21 21 20
2 2 2 3 3 3 3 3 4 5 5 6 7 7 7 7 7 7 7 7 7 8 9 10 10 10 12 14 15 16 16 17 17 18 18 18 20 20 20 20 21 21 21
2 2 2 3 3 3 4 5 5 6 5 5 6 7 8 8 7 7 7 7 8 9 9 10 9 9 10 13 15 16 17 18 18 19 19 19 20 20 20 19 18 19 20
3 3 3 3 4 4 4 5 5 5 5 4 5 7 6 7 6 7 7 8 9 8 9 10 10 10 11 10 11 15 17 19 19 20 20 20 21 21 21 19 19 19 20
3 4 4 4 4 5 5 5 5 6 6 6 5 5 6 7 9 7 8 8 9 9 9 10 11 12 12 11 12 12 16 18 20 21 21 21 21 21 21 20 19 20 20
4 5 5 5 6 5 6 6 6 6 7 7 6 6 8 8 8 8 7 9 10 11 11 10 11 12 13 12 12 15 17 19 20 21 21 21 21 21 21 21 20 20 19
5 5 6 6 7 6 7 7 7 7 7 8 8 8 9 9 10 10 12 11 10 10 10 11 11 11 12 12 12 14 17 19 20 21 21 22 21 20 21 21 20 19 18
5 6 7 7 8 7 8 8 8 9 9 10 9 9 9 9 9 10 12 13 12 11 11 10 11 11 11 12 14 15 17 19 20 21 21 21 20 20 20 20 20 19 18
6 7 7 8 8 9 9 9 9 10 10 11 11 10 10 11 10 10 11 12 14 13 12 10 10 10 11 11 12 13 17 19 20 20 20 20 19 19 19 19 19 19 18
7 8 9 9 10 10 10 10 9 11 10 11 12 13 11 11 10 10 11 11 12 13 12 13 10 10 10 11 13 14 16 18 19 20 20 19 18 18 18 18 17 17 17
7 9 9 10 10 11 11 11 10 11 11 12 12 13 12 11 11 10 10 10 10 12 14 13 10 10 10 12 13 14 15 17 18 18 19 18 18 17 16 15 14 14 13
8 9 10 10 11 11 11 11 11 11 12 12 11 13 13 11 11 10 10 10 11 12 13 12 11 12 12 12 14 15 14 16 17 17 17 17 16 15 15 14 12 12 11
9 9 10 11 11 11 11 12 12 13 13 13 13 13 14 13 11 11 10 10 11 11 13 13 12 12 14 13 11 11 12 12 11 13 15 15 14 13 13 13 12 11 10
9 10 10 11 11 11 12 12 13 13 13 14 14 14 15 11 13 12 10 11 11 11 12 14 13 11 13 12 11 11 10 9 9 11 12 13 12 12 11 10 9 9 8
9 10 10 11 11 12 12 13 13 14 14 14 14 14 15 13 14 11 11 11 10 10 10 11 12 11 10 10 10 10 9 8 8 8 9 9 8 9 9 9 8 7 5
10 10 10 11 11 12 12 13 13 14 14 14 14 14 14 14 14 12 11 11 10 10 10 10 10 10 9 9 7 7 7 6 6 7 7 6 5 4 3 4 4 4 4
9 10 10 11 11 11 11 12 12 13 14 14 13 13 13 14 14 12 10 10 10 9 9 9 9 9 8 7 7 6 6 6 6 6 5 4 3 2 1 3 4 6 5
9 9 10 11 11 10 12 15 14 13 13 13 13 12 11 12 12 14 15 15 14 12 11 10 9 9 10 8 6 6 6 6 5 5 4 4 3 1 1 1 5 6 6
9 10 10 11 12 12 13 15 15 12 12 11 11 11 9 9 10 10 11 12 13 14 14 12 11 10 9 8 6 6 6 5 6 5 4 3 3 2 1 3 7 6 6
9 10 11 11 11 11 13 15 15 12 11 11 11 11 10 10 9 9 8 9 9 9 10 10 10 10 8 7 6 6 5 4 5 4 3 1 2 2 3 3 7 7 6
9 10 10 10 11 12 13 14 14 9 9 10 10 10 10 10 10 9 8 8 8 8 6 6 7 7 6 6 5 3 3 2 3 3 3 1 1 3 3 3 5 7 6
9 9 10 10 11 11 12 13 13 7 8 8 8 8 9 9 9 9 8 7 8 7 5 4 4 3 4 3 3 4 3 2 2 1 2 1 1 2 2 3 3 3 4
Wind_Direction
55 45 39 33 22 12 4 350 344 344 335 334 329 318 311 306 302 302 301 298 293 294 293 292 292 291 288 288 282 276 273 267 264 261 255 250 247 244 241 240 239 236 236
55 32 31 21 11 5 356 343 337 328 321 319 312 308 300 297 294 296 295 289 282 286 289 290 291 290 289 288 285 280 274 272 268 264 260 255 251 248 246 243 242 240 238
37 28 6 359 357 349 344 340 336 327 319 311 305 302 295 289 288 287 289 290 285 281 283 287 291 292 291 289 286 284 279 275 272 268 264 261 257 253 250 247 245 243 240
6 350 342 339 338 336 334 328 325 323 316 306 300 297 291 288 282 285 287 287 287 286 283 283 288 290 291 290 286 284 283 279 275 271 267 263 260 258 255 252 247 245 243
329 333 335 323 320 321 322 320 320 317 311 307 299 293 290 285 280 279 279 281 283 283 285 285 283 284 288 290 288 287 285 283 278 275 271 266 262 259 258 257 252 246 244
318 315 311 314 315 308 312 314 314 311 306 305 300 293 286 281 275 272 277 278 279 280 283 286 284 280 281 285 286 286 286 285 283 279 275 273 269 263 260 258 255 250 247
306 304 299 303 304 302 302 303 304 304 305 311 305 301 291 274 273 273 275 281 284 282 282 282 284 286 285 282 282 283 284 284 285 284 279 275 273 268 263 260 257 255 252
287 291 292 292 291 289 288 292 302 300 305 309 307 309 301 290 275 279 278 278 281 282 282 282 281 283 285 284 281 282 282 282 282 282 281 276 274 271 266 261 259 258 256
275 277 282 284 284 282 282 284 287 288 295 295 291 291 295 292 306 280 280 279 280 282 282 282 281 281 281 282 282 281 282 284 283 280 280 278 274 273 268 264 260 259 256
273 274 275 278 278 279 278 279 281 283 283 283 280 270 273 283 288 292 284 281 284 283 284 284 283 283 281 279 278 279 278 280 283 281 278 278 276 273 269 267 263 260 257
274 275 276 276 277 277 278 279 279 278 275 275 277 276 276 276 269 277 287 290 287 283 284 284 282 282 281 280 278 278 280 281 283 283 279 278 277 273 271 268 268 263 259
274 273 275 275 274 275 276 276 275 272 270 270 270 268 271 271 273 275 282 287 288 289 287 283 281 281 280 279 277 279 282 283 284 283 279 277 276 273 272 268 268 265 262
278 277 276 274 274 274 274 275 274 270 267 267 266 267 265 265 268 269 275 282 287 290 288 282 278 279 280 281 281 283 284 284 284 283 280 277 275 275 271 267 265 264 263
275 278 276 273 273 274 273 272 274 272 268 266 266 266 265 264 263 262 266 277 284 288 288 287 288 282 285 287 287 287 285 282 282 281 281 279 276 276 270 267 262 261 260
276 276 276 275 275 274 272 272 270 273 272 268 267 266 265 264 262 259 260 261 268 283 287 290 292 289 290 289 286 284 284 282 282 280 279 279 275 272 267 265 260 261 255
275 277 277 277 276 275 274 272 274 272 272 271 268 266 265 263 263 258 256 257 256 265 277 285 290 290 291 288 286 284 283 284 280 277 277 276 272 269 266 261 259 255 249
278 277 278 278 278 278 278 276 275 275 273 273 270 267 265 264 263 259 257 256 257 259 270 283 286 290 289 289 292 290 288 287 284 279 277 278 272 266 260 257 251 246 246
283 280 279 279 279 280 280 278 277 274 271 271 271 268 266 264 260 259 256 257 259 259 267 278 286 290 288 290 292 293 294 293 290 289 286 283 272 266 258 251 246 245 241
287 284 281 280 281 281 280 277 276 274 272 270 270 268 266 262 261 258 257 259 261 262 265 272 283 288 291 291 294 294 297 301 303 303 300 292 281 271 259 248 238 228 212
289 288 284 282 282 282 280 278 277 277 274 272 270 267 265 261 259 259 257 258 261 263 265 269 278 285 290 292 292 295 305 311 315 317 314 315 311 312 252 216 187 167 165
290 289 288 286 284 283 279 281 282 281 279 278 274 270 267 263 258 256 256 258 258 259 264 270 275 281 286 290 291 298 302 312 319 322 324 331 337 1 34 97 105 112 115
295 293 290 290 289 285 286 288 288 284 282 279 278 275 271 265 258 256 257 257 255 256 262 267 272 272 278 283 289 294 300 307 313 329 329 336 345 21 35 62 98 100 99
298 296 295 294 291 292 293 293 293 289 283 281 279 277 274 270 262 260 260 259 258 254 252 258 265 267 272 276 281 287 291 300 303 311 322 330 346 25 33 78 99 105 103
298 297 295 293 294 295 298 300 300 292 284 282 280 276 273 274 267 263 265 267 268 267 261 257 260 267 269 273 271 272 280 301 316 320 321 329 7 25 32 53 90 93 93
298 297 295 295 296 297 298 300 299 292 285 285 283 279 274 273 270 264 264 267 273 278 276 259 260 267 278 278 272 267 263 274 303 324 335 353 48 41 35 44 60 72 75
296 298 297 297 297 297 299 301 299 291 289 289 286 282 274 272 275 268 262 262 267 275 283 292 285 278 276 285 283 261 248 241 269 301 323 4 67 44 35 22 30 32 47
Height
1510 1509 1508 1508 1507 1506 1505 1505 1504 1503 1502 1501 1500 1499 1498 1497 1496 1495 1493 1492 1491 1490 1490 1489 1488 1487 1487 1486 1486 1485 1485 1485 1485 1485 1485 1485 1485 1485 1485 1485 1485 1485 1486
1508 1507 1506 1506 1505 1504 1503 1502 1502 1500 1499 1498 1497 1496 1495 1494 1492 1491 1490 1488 1487 1486 1485 1484 1483 1482 1482 1481 1481 1480 1480 1480 1479 1479 1479 1479 1479 1479 1479 1479 1480 1480 1480
1506 1505 1504 1503 1503 1502 1501 1500 1499 1498 1497 1495 1494 1493 1492 1490 1489 1487 1486 1484 1483 1482 1480 1479 1478 1477 1476 1476 1475 1475 1474 1474 1474 1474 1474 1473 1473 1473 1473 1473 1473 1474 1474
1504 1503 1502 1501 1500 1500 1498 1497 1496 1495 1494 1492 1491 1489 1488 1486 1484 1483 1482 1480 1479 1477 1476 1474 1473 1472 1471 1470 1470 1469 1468 1468 1468 1467 1467 1467 1467 1467 1467 1467 1467 1467 1467
1502 1501 1500 1499 1498 1497 1496 1495 1494 1492 1491 1489 1487 1485 1484 1482 1480 1479 1477 1476 1475 1473 1472 1470 1468 1467 1466 1465 1464 1463 1462 1462 1461 1461 1461 1460 1460 1460 1460 1460 1460 1460 1460
1500 1499 1497 1496 1495 1494 1493 1492 1491 1489 1488 1486 1484 1482 1479 1478 1475 1474 1473 1472 1470 1469 1467 1465 1463 1462 1460 1459 1458 1457 1456 1455 1454 1454 1454 1454 1454 1453 1453 1453 1453 1453 1453
1497 1496 1495 1493 1492 1491 1490 1489 1488 1486 1484 1483 1480 1478 1475 1474 1471 1469 1468 1467 1466 1464 1462 1460 1458 1457 1455 1453 1451 1450 1449 1449 1448 1447 1446 1446 1446 1446 1445 1445 1446 1446 1446
1494 1493 1492 1491 1489 1488 1487 1486 1484 1482 1481 1480 1478 1475 1472 1470 1467 1466 1464 1462 1460 1459 1457 1455 1454 1451 1449 1447 1445 1444 1443 1442 1441 1440 1439 1438 1438 1438 1438 1438 1438 1438 1439
1491 1490 1489 1488 1486 1485 1483 1482 1481 1479 1478 1477 1476 1475 1472 1466 1463 1460 1459 1457 1455 1454 1452 1450 1448 1446 1444 1442 1439 1437 1436 1435 1434 1432 1431 1431 1430 1430 1430 1430 1430 1430 1431
1487 1486 1485 1484 1482 1481 1479 1478 1477 1475 1474 1472 1471 1470 1469 1465 1462 1456 1454 1452 1451 1449 1447 1445 1442 1440 1438 1435 1433 1431 1429 1428 1427 1425 1424 1423 1423 1422 1422 1422 1422 1422 1423
1483 1482 1481 1479 1478 1477 1475 1474 1472 1471 1469 1468 1466 1465 1463 1461 1459 1455 1449 1446 1445 1443 1441 1439 1437 1434 1432 1429 1427 1425 1423 1421 1420 1418 1417 1416 1415 1414 1414 1414 1414 1415 1415
1478 1477 1476 1475 1473 1472 1470 1468 1467 1465 1464 1462 1461 1459 1457 1456 1453 1451 1446 1441 1438 1435 1434 1433 1430 1428 1426 1423 1420 1418 1416 1414 1412 1411 1410 1408 1407 1407 1406 1406 1407 1407 1407
1474 1473 1471 1469 1468 1466 1465 1463 1461 1459 1458 1456 1454 1453 1451 1449 1448 1445 1442 1437 1433 1429 1428 1426 1425 1422 1420 1417 1414 1412 1409 1407 1405 1404 1403 1401 1400 1399 1399 1399 1399 1399 1400
1469 1467 1466 1464 1462 1461 1459 1457 1455 1453 1451 1449 1448 1446 1444 1442 1441 1439 1437 1434 1429 1424 1421 1420 1419 1417 1414 1412 1408 1405 1402 1400 1398 1397 1396 1394 1393 1392 1392 1392 1391 1392 1393
1464 1462 1460 1459 1457 1455 1453 1451 1449 1447 1445 1443 1441 1439 1437 1435 1434 1432 1430 1429 1427 1420 1415 1413 1413 1410 1408 1405 1402 1399 1396 1394 1391 1390 1388 1387 1386 1385 1385 1385 1384 1385 1385
1458 1456 1455 1453 1451 1449 1447 1445 1442 1440 1438 1436 1434 1432 1430 1428 1427 1425 1423 1422 1420 1417 1411 1407 1406 1405 1402 1399 1396 1393 1390 1387 1385 1383 1382 1380 1379 1378 1378 1378 1378 1378 1379
1453 1451 1449 1447 1445 1442 1441 1438 1436 1434 1431 1429 1427 1425 1423 1421 1419 1418 1416 1415 1413 1411 1406 1402 1401 1399 1397 1394 1390 1388 1385 1382 1379 1377 1375 1373 1372 1371 1371 1371 1371 1372 1373
1447 1445 1443 1440 1438 1436 1434 1431 1429 1427 1424 1422 1420 1418 1416 1414 1412 1410 1409 1408 1407 1405 1403 1398 1395 1393 1391 1389 1386 1382 1379 1377 1374 1372 1370 1367 1365 1364 1364 1364 1365 1366 1367
1441 1439 1437 1434 1431 1429 1427 1424 1422 1420 1417 1415 1412 1410 1408 1407 1405 1404 1402 1402 1400 1399 1398 1395 1390 1389 1386 1384 1381 1378 1375 1373 1370 1368 1365 1362 1360 1358 1358 1359 1360 1361 1362
1435 1432 1430 1428 1425 1423 1420 1417 1415 1412 1410 1407 1405 1403 1401 1400 1398 1397 1396 1395 1395 1393 1392 1390 1387 1384 1382 1380 1378 1375 1372 1369 1367 1364 1361 1359 1356 1354 1354 1354 1355 1357 1359
1430 1427 1424 1421 1419 1416 1413 1411 1408 1406 1403 1400 1398 1396 1394 1393 1391 1391 1390 1390 1389 1388 1387 1385 1383 1381 1379 1377 1375 1372 1370 1367 1364 1362 1359 1356 1354 1352 1353 1353 1353 1355 1356
1424 1421 1418 1415 1412 1410 1407 1405 1402 1399 1396 1394 1391 1389 1387 1386 1385 1384 1384 1384 1384 1383 1381 1380 1378 1377 1375 1373 1372 1370 1368 1365 1362 1361 1358 1355 1354 1353 1353 1353 1355 1355 1356
1419 1416 1413 1410 1406 1403 1401 1398 1396 1393 1390 1387 1385 1383 1381 1380 1380 1379 1378 1378 1378 1377 1377 1376 1374 1372 1371 1370 1369 1367 1366 1364 1362 1360 1358 1355 1355 1354 1355 1355 1356 1356 1357
1414 1411 1407 1404 1401 1398 1395 1392 1389 1387 1384 1381 1379 1378 1376 1375 1374 1373 1373 1372 1371 1371 1371 1370 1369 1368 1367 1366 1366 1365 1364 1362 1360 1359 1358 1356 1355 1355 1356 1357 1357 1357 1358
1409 1406 1403 1400 1396 1393 1390 1388 1385 1382 1379 1376 1374 1373 1371 1370 1369 1369 1368 1367 1366 1365 1365 1364 1364 1363 1363 1363 1362 1362 1361 1360 1358 1358 1358 1356 1356 1356 1357 1358 1358 1358 1359
1404 1401 1398 1395 1392 1388 1386 1383 1381 1378 1375 1372 1370 1368 1367 1366 1365 1364 1364 1363 1361 1360 1360 1359 1359 1358 1358 1359 1359 1359 1359 1359 1357 1357 1357 1356 1356 1356 1357 1358 1359 1359 1359